Regional Weather Roundup
Issued by NWS Northern Indiana

Home | Current Version | Previous Version | Graphics & Text | Print | Product List | Glossary On
Versions: 1 2 3 4 5 6 7 8 9 10 11 12 13 14 15 16 17 18 19 20 21 22 23 24 25 26 27 28 29 30 31 32 33 34 35 36 37 38 39 40 41 42 43 44 45 46 47 48 49 50
000
ASUS43 KIWX 041310
RWRIWX

KIWX WEATHER ROUNDUP
NATIONAL WEATHER SERVICE NORTHERN INDIANA
900 AM EDT SAT JUL 04 2015

NOTE: "FAIR" INDICATES FEW OR NO CLOUDS BELOW 12,000 FEET WITH NO
SIGNIFICANT WEATHER AND/OR OBSTRUCTIONS TO VISIBILITY.

* THESE STATIONS ARE NOT UNDER NWS QUALITY CONTROL. THEY ALSO MAY NOT
  REPORT WEATHER SUCH AS PRECIPITATION OR FOG.

INZ001>027-041400-
NORTHERN INDIANA

CITY           SKY/WX    TMP DP  RH WIND       PRES   REMARKS
GARY*          SUNNY     66  59  77 CALM      30.00R HAZE
VALPARAISO     SUNNY     63  59  87 CALM      30.01R
MICHIGAN CITY* SUNNY     61  59  94 CALM      30.01R
LAPORTE*       SUNNY     65  59  80 CALM      30.01S
KNOX*          SUNNY     61  61 100 CALM      30.00R
SOUTH BEND     SUNNY     64  58  80 W3        30.00S
ELKHART*       SUNNY     63  57  82 CALM      30.01R
GOSHEN         SUNNY     62  58  86 CALM      30.00R FOG
MONTICELLO*    SUNNY     63  61  93 CALM      30.00R
LOGANSPORT*    SUNNY     63  57  82 CALM      30.02R
ROCHESTER*     SUNNY     64  61  88 CALM      30.01R
WARSAW*          N/A     61  59  94 CALM      30.01R FOG
ANGOLA*          N/A     64  55  72 NW5       30.00R
FORT WAYNE     SUNNY     65  60  84 CALM      30.01R
HUNTINGTON*    SUNNY     65  62  90 CALM      30.00R
PERU/GRISSOM   SUNNY     64  61  88 CALM      30.00R
MARION*        SUNNY     63  62  99 CALM      30.01R FOG

$$
INZ028>050-041400-
CENTRAL INDIANA

CITY           SKY/WX    TMP DP  RH WIND       PRES   REMARKS
LAFAYETTE      SUNNY     63  60  90 CALM      30.00R
KOKOMO*        SUNNY     66  61  82 CALM      30.00R
MUNCIE*        SUNNY     66  61  84 CALM      30.01R
INDIANAPOLIS   SUNNY     68  60  75 NE6       29.99R

$$
MIZ043>046-050>051-056>058-064>065-071>073-077>080-041400-
SOUTHWEST LOWER MICHIGAN

CITY           SKY/WX    TMP DP  RH WIND       PRES   REMARKS
BATTLE CREEK   SUNNY     64  57  78 NW3       30.01R
BENTON HARBOR  SUNNY     63  58  83 CALM      29.99S
COLDWATER*     SUNNY     61  59  94 CALM      30.00R FOG
HILLSDALE*     SUNNY     65  61  87 CALM      30.00R
HOLLAND        SUNNY     64  57  78 S5        30.00R
GRAND RAPIDS   CLOUDY    62  53  72 W5        30.00R
KALAMAZOO      SUNNY     64  55  72 NW5       30.01R
STURGIS*       SUNNY     63  57  82 CALM      30.00R
THREE RIVERS*  FAIR      63  57  80 CALM      30.01R

$$
OHZ001>008-015>018-024>025-041400-
NORTHWEST OHIO

CITY           SKY/WX    TMP DP  RH WIND       PRES   REMARKS
DEFIANCE       SUNNY     65  59  81 NW3       30.00R
FINDLAY        SUNNY     64  54  69 N3        29.99R
TOLEDO EXPRESS SUNNY     64  55  72 CALM      29.98R
TOLEDO METCALF SUNNY     64  55  72 W5        29.99R
LIMA           SUNNY     63  56  78 CALM      30.00R

$$
AND FOR LAKE MICHIGAN COASTAL AND OPEN LAKE BUOY OBSERVATIONS

STATION/POSITION TEMP    WIND        PRES    VSBY  WAVE
                 AIR SEA DIR/SP/G                  HT/PER
                 (F)     (DEG/KT/KT) (MB)    (MI)  (FT/S)
CALUMET HARBOR    64     250/  2/  4   N/A
MICHIGAN CITY     61     150/  3/  3   N/A
BURNS HARBOR      62     190/  3/  4 1015.9R
SAINT JOSEPH      62     180/  3/  3   N/A
4 MI NW BRIDGMAN  61 62                N/A           0
MICHIGAN CITY     62 63  170/  4/  4   N/A           0

$$
&&


USA.gov is the U.S. government's official web portal to all federal, state and local government web resources and services.